Spokane Felts, WA

12:32 PM PDT on June 25, 2017 (GMT -0700)
Felts

Weather History for KSFF - November, 2013

Change the Weather History Date:

Sunday, November 17, 2013

  Actual Average Record
Temperature  
Mean Temperature 39 °F 37 °F  
Max Temperature 47 °F 43 °F 55 °F (2015)
Min Temperature 31 °F 30 °F 14 °F (2014)
Degree Days  
Heating Degree Days 26 28  
Month to date heating degree days 418 436  
Since 1 July heating degree days 1112 1173  
Cooling Degree Days 0 0  
Month to date cooling degree days 0 0  
Year to date cooling degree days 704 406  
Moisture  
Dew Point 31 °F    
Average Humidity 74    
Maximum Humidity 85    
Minimum Humidity 62    
Precipitation  
Precipitation T in 0.07 in 0.44 in (2001)
Month to date precipitation 1.22 1.20  
Year to date precipitation 13.08 14.15  
Sea Level Pressure  
Sea Level Pressure 29.86 in    
Wind  
Wind Speed 7 mph (SSW)    
Max Wind Speed 17 mph    
Max Gust Speed 24 mph    
Visibility 10 miles    
Events Rain    
T = Trace of Precipitation, MM = Missing Value Source: NWS Daily Summary

Daily Weather History Graph

Daily Weather History Graph

Search for Another Location

Airport or City:

Trip Planner

Search our weather history database for the weather conditions in past years. The results will help you decide how hot, cold, wet, or windy it might be!

Date:

Astronomy

Nov. 17, 2013 Rise Set
Actual Time 6:58 AM PST 4:10 PM PST
Civil Twilight 6:24 AM PST 4:43 PM PST
Nautical Twilight 5:46 AM PST 5:21 PM PST
Astronomical Twilight 5:10 AM PST 5:58 PM PST
Moon 4:30 PM PST (11/17) 6:55 AM PST (11/17)
Length of Visible Light 10h 19m
Length of Day
9h 11m
Full, 100% of the Moon is Illuminated
Nov 17
Full
Nov 25
Last Quarter
Dec 2
New
Dec 9
First Quarter
Dec 17
Full

Hourly Weather History & Observations

Time (PST) Temp. Windchill Dew Point Humidity Pressure Visibility Wind Dir Wind Speed Gust Speed Precip Events Conditions
12:53 AM 35.1 °F 27.9 °F 26.1 °F 70% 29.69 in 10.0 mi WSW 9.2 mph - N/A   Scattered Clouds
1:53 AM 35.1 °F 30.1 °F 26.1 °F 70% 29.71 in 10.0 mi WSW 5.8 mph - N/A   Overcast
2:53 AM 34.0 °F - 27.0 °F 75% 29.74 in 10.0 mi Calm Calm - N/A   Overcast
3:53 AM 33.1 °F - 27.0 °F 78% 29.77 in 10.0 mi Calm Calm - N/A   Overcast
4:53 AM 32.0 °F 24.2 °F 26.1 °F 79% 29.79 in 10.0 mi SW 9.2 mph - N/A   Clear
5:53 AM 33.1 °F 26.9 °F 26.1 °F 75% 29.83 in 10.0 mi SW 6.9 mph - N/A   Scattered Clouds
6:53 AM 33.1 °F - 26.1 °F 75% 29.86 in 10.0 mi Calm Calm - N/A   Scattered Clouds
7:53 AM 30.9 °F - 27.0 °F 85% 29.89 in 10.0 mi Calm Calm - N/A   Scattered Clouds
8:53 AM 36.0 °F - 28.0 °F 73% 29.91 in 10.0 mi Calm Calm - N/A   Scattered Clouds
9:53 AM 37.9 °F - 28.9 °F 70% 29.93 in 10.0 mi Calm Calm - N/A   Mostly Cloudy
10:53 AM 37.9 °F 33.5 °F 30.9 °F 76% 29.94 in 10.0 mi SSE 5.8 mph - N/A   Overcast
11:53 AM 39.9 °F 37.8 °F 32.0 °F 73% 29.94 in 10.0 mi SSW 3.5 mph - N/A   Overcast
12:27 PM 39.2 °F 35.9 °F 33.8 °F 81% 29.89 in 10.0 mi Variable 4.6 mph - N/A   Mostly Cloudy
12:53 PM 42.1 °F 36.6 °F 34.0 °F 73% 29.92 in 10.0 mi South 9.2 mph 17.3 mph N/A   Overcast
1:53 PM 45.0 °F 41.2 °F 36.0 °F 71% 29.88 in 10.0 mi South 6.9 mph - N/A   Overcast
2:27 PM 46.4 °F 41.9 °F 35.6 °F 66% 29.85 in 10.0 mi SSW 9.2 mph - N/A   Overcast
2:53 PM 46.9 °F - 36.0 °F 66% 29.87 in 10.0 mi SSW 9.2 mph - N/A   Mostly Cloudy
3:53 PM 46.0 °F 40.2 °F 35.1 °F 66% 29.87 in 10.0 mi SSW 12.7 mph - N/A   Overcast
4:53 PM 45.0 °F 39.7 °F 35.1 °F 68% 29.87 in 10.0 mi South 10.4 mph 21.9 mph 0.00 in Rain Light Rain
5:53 PM 45.0 °F 40.1 °F 35.1 °F 68% 29.88 in 10.0 mi SSW 9.2 mph - 0.00 in   Overcast
6:53 PM 45.0 °F 40.1 °F 34.0 °F 65% 29.88 in 10.0 mi SSW 9.2 mph - N/A   Overcast
7:53 PM 45.0 °F 40.1 °F 33.1 °F 63% 29.88 in 10.0 mi SSW 9.2 mph - N/A   Overcast
8:53 PM 45.0 °F 38.9 °F 33.1 °F 63% 29.89 in 10.0 mi SW 12.7 mph 17.3 mph N/A   Overcast
9:53 PM 45.0 °F 39.7 °F 32.0 °F 60% 29.89 in 10.0 mi SSW 10.4 mph - N/A   Clear
10:53 PM 45.0 °F 38.5 °F 33.1 °F 63% 29.89 in 10.0 mi SSW 13.8 mph 21.9 mph N/A   Clear
11:53 PM 44.1 °F 39.5 °F 33.1 °F 65% 29.91 in 10.0 mi SSW 8.1 mph - N/A   Overcast